Location: Menands
(42.6920°N, 73.7246°W)
Time: 17:08:29
(UTC+00:00)

Meteor 1-27 - Pass Details

Date: 18 February 2026
Orbit: 837 x 891 km, 81.3° (Epoch: 12 March)

Event Time Altitude Azimuth Distance (km) Brightness Sun altitude
Rises 22:57:56 0° 351° (N) 3,491 7.4 -5.7°
Reaches altitude 10° 23:00:24 10° 353° (N) 2,554 6.7 -6.2°
Maximum altitude 23:06:14 77° 79° (E) 915 4.3 -7.2°
Drops below altitude 10° 23:12:03 10° 166° (SSE) 2,549 6.6 -8.3°
Sets 23:14:30 0° 168° (SSE) 3,484 7.4 -8.7°
